Content
SEND FEEDBACK

Daily
Averages
Monthly
Summary
United States of America

CHICAGO, ILLINOIS


Home > North America > United States > Illinois
Elevation: 674 feet     Latitude: 41 59N     Longitude: 087 54W

WEATHER
 
SELECT A DAY
Number of Records: 197,222;   Date Range: 7/8/95 - 9/29/14
 
SHARE

PRINT THIS DATA

[ ← Previous Day ]
WEATHER ALMANAC - FEBRUARY 26, 2013
[ Next Day → ]
[ °C ]   °F
Weather ElementAverageHighLow
Temperature33.7 °F36 °F (1:52 am)32 °F (11:47 am)
Dewpoint29.7 °F32 °F (6:52 pm)26.1 °F (5:52 am)
Humidity85.8 %96 % (2:52 pm)70 % (5:52 am)
Barometer29.66 in29.97 in (1:52 am)29.53 in (11:39 pm)
Wind Speed15.5 mph21.9 mph (1:48 pm)
Wind Gust35.7 mph (3:52 pm)
Weather ElementAverage
Visibility3.5 mi
Wind DirectionNE (45 °)

Weather ElementTotal
Precipitation0.01 in
Heating Degree Days31 (Base 65)
Averaged from 32 records on February 26, 2013
WEATHER CONDITIONS BREAKOUT
WIND DIRECTION BREAKOUT
WEATHER BY HOUR - FEBRUARY 26, 2013
[ °C ]   °F
Local TimeTemperatureDewpointHumidityBarometerVisibilityWind DirectionWind SpeedGust SpeedPrecipitationEventsConditions
1:52 AM36.0 °F28.0 °F73 %29.97 in10.0 miENE (70°)9.2 mphClear
2:52 AM35.1 °F28.0 °F76 %29.91 in10.0 miENE (60°)13.8 mph21.9 mphClear
3:52 AM35.1 °F28.0 °F76 %29.87 in10.0 miENE (60°)13.8 mph20.7 mphClear
4:52 AM34.0 °F27.0 °F75 %29.87 in10.0 miENE (70°)13.8 mph26.5 mphClear
5:52 AM35.1 °F26.1 °F70 %29.81 in10.0 miENE (60°)13.8 mph29.9 mphClear
6:52 AM35.1 °F27.0 °F72 %29.83 in10.0 miENE (60°)16.1 mph27.6 mphPartly Cloudy
7:52 AM35.1 °F27.0 °F72 %29.82 in10.0 miENE (70°)16.1 mph24.2 mphMostly Cloudy
9:52 AM35.1 °F26.1 °F70 %29.70 in10.0 miENE (60°)16.1 mph32.2 mphOvercast
10:52 AM35.1 °F26.1 °F70 %29.68 in10.0 miNE (50°)16.1 mph23.0 mphOvercast
11:23 AM35.6 °F26.6 °F70 %29.66 in2.5 miNE (50°)17.3 mph28.8 mph0.00 inSnowLight Snow
11:27 AM35.6 °F26.6 °F70 %29.66 in1.0 miNE (50°)19.6 mph28.8 mph0.00 inSnowLight Snow
11:35 AM33.8 °F28.4 °F81 %29.66 in0.2 miNE (50°)20.7 mph32.2 mph0.00 inSnowHeavy Snow
11:47 AM32.0 °F30.2 °F93 %29.66 in0.2 miNE (50°)15.0 mph27.6 mph0.00 inFog-SnowSnow
11:52 AM32.0 °F30.0 °F92 %29.68 in0.2 miNE (50°)16.1 mph25.3 mph0.00 inFog-SnowHeavy Snow
12:52 PM32.0 °F30.0 °F92 %29.62 in0.2 miNE (40°)20.7 mph31.1 mph0.00 inFog-SnowSnow
1:48 PM32.0 °F30.2 °F93 %29.58 in0.2 miNE (40°)21.9 mph31.1 mph0.00 inFog-SnowSnow
1:52 PM32.0 °F30.0 °F92 %29.60 in0.2 miNE (50°)18.4 mph31.1 mph0.00 inFog-SnowSnow
2:52 PM32.0 °F30.9 °F96 %29.60 in0.2 miNE (40°)12.7 mph24.2 mph0.00 inFog-SnowSnow
3:43 PM33.8 °F30.2 °F87 %29.57 in0.5 miNE (40°)18.4 mph28.8 mph0.00 inFog-SnowLight Snow
3:52 PM33.1 °F30.9 °F92 %29.59 in0.5 miNE (40°)15.0 mph35.7 mph0.00 inFog-SnowLight Snow
4:52 PM33.1 °F30.9 °F92 %29.59 in0.5 miNE (40°)19.6 mph32.2 mph0.00 inFog-SnowSnow
5:52 PM33.1 °F30.9 °F92 %29.60 in0.5 miNE (40°)17.3 mph25.3 mph0.00 inFog-SnowSnow
6:52 PM33.1 °F32.0 °F96 %29.60 in0.5 miNE (40°)13.8 mph26.5 mph0.00 inFog-SnowSnow
7:01 PM33.8 °F32.0 °F93 %29.58 in1.0 miNE (40°)13.8 mph24.2 mph0.00 inSnowLight Snow
7:52 PM33.1 °F32.0 °F96 %29.59 in1.0 miNE (40°)15.0 mph28.8 mph0.01 inSnowLight Snow
8:52 PM33.1 °F32.0 °F96 %29.58 in1.0 miNNE (30°)12.7 mph0.00 inSnowLight Snow
8:59 PM33.8 °F32.0 °F93 %29.56 in2.5 miNNE (30°)15.0 mph25.3 mph0.00 inSnowLight Snow
9:52 PM33.1 °F32.0 °F96 %29.57 in2.5 miNNE (30°)12.7 mph24.2 mph0.00 inSnowLight Snow
10:31 PM33.8 °F32.0 °F93 %29.55 in1.5 miNNE (30°)15.0 mph23.0 mph0.00 inSnowLight Snow
10:52 PM33.1 °F32.0 °F96 %29.57 in1.5 miNNE (20°)12.7 mph20.7 mph0.00 inSnowLight Snow
11:39 PM33.8 °F32.0 °F93 %29.53 in2.0 miNNE (20°)11.5 mph0.00 inSnowLight Snow
11:52 PM33.1 °F32.0 °F96 %29.55 in2.5 miNNE (20°)12.7 mph20.7 mph0.00 inSnowLight Snow
Hourly data recorded from KPWK, located miles away from Chicago, Illinois







STORIES FROM OUR PARTNERS